Cloud_Cover
0 0 0 0 0 0 0 0 0 0 0 0 0 0 0 0 0 0 0 0 0 0 0 0 0 0 0 0 0 0 0 0 0 0 0 0 0 8 8 8 20 32 32 36 20 8 0 0 0 0 0 0 0 0 0 0 0 0 0 0 0 0 0 0 0 0 0 0 0 0 0 0 0 0 0 0 0 0 0 0 0 0 0 0 0 0 0 12 20 44 92 92 92 64 8 8 8 0 0 0 20 44 92
0 0 0 0 0 0 0 0 0 0 0 0 0 0 0 0 0 0 0 0 0 0 0 0 0 0 0 0 0 0 0 0 0 0 0 8 8 12 8 8 20 32 32 20 8 0 0 0 0 0 0 0 0 0 0 0 0 0 0 0 0 0 0 0 0 0 0 0 0 0 0 0 0 0 0 0 0 0 0 0 0 0 0 0 0 0 0 8 20 32 56 44 32 12 0 0 0 8 0 8 8 20 64
0 0 0 0 0 0 0 0 0 0 0 0 0 0 0 0 0 0 0 0 0 0 0 0 0 0 0 0 0 0 0 0 0 8 12 8 8 12 20 12 12 20 12 8 0 0 0 0 0 0 0 0 0 0 0 0 0 0 0 0 0 0 0 0 0 0 0 0 0 0 0 0 0 0 0 0 0 0 0 0 0 0 0 0 0 0 0 8 12 24 36 24 24 12 0 8 8 0 0 12 20 20 36
0 0 0 0 0 0 0 0 0 0 0 0 0 0 0 0 0 0 0 0 0 0 0 0 0 0 0 0 0 0 0 0 0 12 36 20 8 0 8 0 0 0 0 0 0 0 0 0 0 0 0 0 0 0 0 0 0 0 0 0 0 0 0 0 0 0 0 0 0 0 0 0 0 0 0 0 0 0 0 0 0 0 0 0 0 0 0 0 24 44 36 24 32 44 64 32 12 0 0 24 24 20 24
0 0 0 0 0 0 0 0 0 0 0 0 0 0 0 0 0 0 0 0 0 0 0 0 0 0 0 0 0 0 0 0 0 8 24 12 8 0 0 0 0 0 0 0 0 0 0 0 0 0 0 0 0 0 0 0 0 0 0 0 0 0 0 0 0 0 0 0 0 0 0 0 0 0 0 0 0 0 0 0 0 0 0 0 0 0 0 0 8 20 48 44 24 20 32 24 12 0 0 8 8 8 8
0 0 0 0 0 0 0 0 0 0 0 0 0 0 0 0 0 0 0 0 0 0 0 0 0 0 0 0 0 0 0 0 0 0 0 0 0 0 0 0 0 0 0 0 0 0 0 0 0 0 0 0 0 0 0 0 0 0 0 0 0 0 0 0 0 0 0 0 0 0 0 0 0 0 0 0 0 0 0 0 0 0 0 0 0 0 0 0 0 20 64 64 44 32 44 24 24 24 0 0 0 0 0
0 0 0 0 0 0 0 0 0 0 0 0 0 0 0 0 0 0 0 0 0 0 0 0 0 0 0 0 0 0 0 0 0 0 0 0 0 0 0 0 0 0 0 0 0 0 0 0 0 0 0 0 0 0 0 0 0 0 0 0 0 0 0 0 0 0 0 0 0 0 0 0 0 0 0 0 0 0 0 0 0 0 0 0 0 0 0 0 0 0 8 48 48 36 36 44 24 8 0 0 0 0 0
0 0 0 0 0 0 0 0 0 0 0 0 0 0 0 0 8 8 0 0 0 0 0 0 0 0 0 0 0 0 0 0 0 0 0 0 0 0 0 0 0 0 0 0 0 0 0 0 0 0 0 0 0 0 0 0 0 0 0 0 0 0 0 0 0 0 0 0 0 0 0 0 0 0 0 0 0 0 0 0 0 0 0 0 0 0 0 0 0 0 0 0 12 32 24 32 32 32 24 8 0 0 0
0 0 0 0 0 0 0 0 0 0 0 0 0 0 0 0 8 8 8 0 0 0 0 0 0 0 0 0 0 0 0 0 0 0 0 0 0 0 0 0 0 0 0 0 0 0 0 0 0 0 0 0 0 0 0 0 0 0 0 0 0 0 0 0 0 0 0 0 0 0 0 0 0 0 0 0 0 0 0 0 0 0 0 0 0 0 0 0 0 0 0 0 0 0 12 20 12 8 8 0 0 0 0
0 0 0 0 0 0 0 0 0 0 0 0 0 0 0 0 8 8 8 8 0 0 0 0 0 0 0 0 0 0 0 0 0 0 0 0 0 0 0 0 0 0 0 0 0 0 0 0 0 0 0 0 0 0 0 0 0 0 0 0 0 0 0 0 0 0 0 0 0 0 0 0 0 0 0 0 0 0 0 0 0 0 0 0 0 0 0 0 0 0 0 0 0 0 0 0 0 0 0 0 0 0 0
0 0 0 0 0 0 0 0 0 0 0 0 0 0 0 8 8 8 8 8 8 0 0 0 0 0 0 0 0 0 0 0 0 0 0 0 0 0 0 0 0 0 0 0 0 0 0 0 0 0 0 0 0 0 0 0 0 0 0 0 0 0 0 0 0 0 0 0 0 0 0 0 0 0 0 0 0 0 0 0 0 0 0 0 0 0 0 0 0 0 0 0 0 0 0 0 0 0 0 0 0 0 0
0 0 0 0 0 0 0 0 0 0 0 0 0 0 0 8 8 8 8 8 8 8 8 0 0 0 0 0 0 0 0 0 0 0 0 0 0 0 0 0 0 0 0 0 0 0 0 0 0 0 0 0 0 0 0 0 0 0 0 0 0 0 0 0 0 0 0 0 0 0 0 0 0 0 0 0 0 0 0 0 0 0 0 0 0 0 0 0 0 8 0 0 0 0 0 0 0 0 0 0 0 0 0
0 0 0 0 0 0 0 0 0 0 0 0 0 0 0 0 8 8 8 8 8 8 8 8 8 8 0 0 0 0 0 0 0 0 0 0 0 0 0 0 0 0 0 0 0 0 0 0 0 0 0 0 0 0 0 0 0 0 0 0 0 0 0 0 0 0 0 0 0 0 0 0 0 0 0 0 0 0 0 0 0 0 0 0 0 0 0 0 0 0 8 0 0 0 0 0 0 0 0 0 0 0 0
0 0 0 0 0 0 0 0 0 0 0 0 0 0 0 0 8 8 8 8 8 8 8 8 8 8 8 0 0 0 0 0 0 0 0 0 0 0 0 0 0 0 0 0 0 0 0 0 0 0 0 0 0 0 0 0 0 0 0 0 0 0 0 0 0 0 0 0 0 0 0 0 0 0 0 0 0 0 0 0 0 0 0 0 0 0 0 0 0 0 0 0 0 0 0 0 0 0 0 0 0 0 0
0 0 0 0 0 0 0 0 0 0 0 0 0 0 0 8 8 8 8 8 8 8 8 8 8 8 8 8 8 0 0 0 0 0 0 0 0 0 0 0 0 0 0 0 0 0 0 0 0 0 0 0 0 0 0 0 0 0 0 0 0 0 0 0 0 0 0 0 0 0 0 0 0 0 0 0 0 0 0 0 0 0 0 0 0 0 0 0 0 0 0 0 0 0 0 0 0 0 0 0 0 0 0
0 0 0 0 0 0 0 0 0 0 0 0 0 0 0 8 8 8 8 8 8 8 8 8 8 8 8 8 20 20 20 12 20 20 12 8 8 0 0 0 0 0 0 0 0 0 0 0 0 0 0 0 0 0 8 0 0 0 0 0 0 0 0 0 0 0 0 0 0 0 0 0 0 0 0 8 0 0 0 0 0 0 0 0 0 0 0 0 0 0 0 0 0 0 0 0 0 0 0 8 8 8 8
0 0 0 0 0 0 0 0 0 0 0 0 0 0 0 0 0 8 8 8 8 8 8 8 8 8 8 12 32 36 24 24 24 20 20 20 20 8 0 0 0 0 0 8 0 0 0 0 0 0 0 0 0 0 0 0 0 0 0 0 0 0 0 0 0 0 0 0 0 0 0 0 0 0 0 0 0 0 0 0 0 0 0 0 0 0 0 0 0 0 0 0 0 0 0 0 0 0 0 8 8 8 8
0 0 0 0 0 0 0 0 0 0 0 0 0 0 0 0 0 8 8 8 8 8 8 8 8 8 8 12 20 20 12 20 12 8 8 20 20 12 12 8 0 0 8 8 0 0 0 0 0 0 0 0 0 0 0 0 0 0 0 0 0 0 0 0 0 0 0 0 0 0 0 0 0 0 0 0 0 0 0 0 0 0 0 0 0 0 0 0 0 0 0 0 0 0 0 0 0 0 8 12 12 12 8
0 0 0 0 0 0 0 0 0 0 0 0 0 0 0 0 0 8 8 8 8 8 8 8 8 8 8 24 20 20 32 24 12 8 8 8 12 12 12 8 0 0 8 8 8 8 0 0 0 0 0 0 0 0 0 0 0 0 0 0 0 0 0 0 0 0 0 0 0 0 0 0 0 0 0 0 0 0 0 0 0 0 0 0 0 0 0 0 0 0 0 0 0 0 0 0 0 8 8 12 12 12 8
0 0 0 0 0 0 0 0 0 0 0 0 0 0 0 0 0 0 8 8 8 8 8 8 12 24 36 44 32 20 24 12 8 8 8 8 8 8 8 0 0 0 8 8 8 8 8 0 0 0 0 0 0 0 0 0 0 0 0 0 0 0 0 0 0 0 0 0 0 0 0 0 0 0 0 0 0 0 0 0 0 0 0 0 0 0 0 0 0 0 0 0 0 0 0 0 8 12 12 12 12 8 8
0 0 0 0 0 0 0 0 0 0 0 0 0 0 0 0 0 0 0 0 8 8 12 32 44 48 48 56 32 8 8 8 0 0 0 0 0 0 0 0 0 0 8 8 8 8 8 8 0 0 0 0 0 0 0 0 0 0 0 0 0 0 0 0 0 0 0 0 0 0 0 0 0 0 0 0 0 0 0 0 0 0 0 0 0 0 0 0 0 0 0 0 0 0 0 8 12 12 12 12 8 8 8
0 0 0 0 0 0 0 0 0 0 0 0 20 36 44 44 44 36 12 24 44 48 48 64 64 64 56 64 32 8 0 0 0 0 0 0 0 0 0 0 0 8 8 8 8 8 8 8 8 0 0 0 0 0 0 0 0 0 0 0 0 0 0 0 0 0 0 0 0 0 0 0 0 0 0 0 0 0 0 0 0 0 0 0 0 0 0 0 0 0 0 0 8 8 8 12 12 12 12 8 8 8 0
8 8 0 0 0 0 0 8 8 8 12 12 32 64 80 80 80 76 56 64 76 76 56 68 68 68 64 48 32 20 12 8 0 0 0 0 0 0 0 0 8 8 8 8 12 12 12 8 8 8 8 8 0 0 0 0 0 0 0 0 0 0 0 0 0 0 0 0 0 0 0 0 0 0 0 0 0 0 0 0 0 0 0 0 0 0 0 0 0 0 0 8 12 12 12 12 12 12 12 8 0 0 0
12 8 8 0 0 12 44 44 44 48 48 36 56 76 80 88 80 80 80 80 80 80 68 76 76 68 64 48 48 48 44 12 0 0 0 0 0 0 0 8 8 8 12 12 12 12 8 12 12 8 8 8 8 8 0 0 0 0 0 0 0 0 0 0 0 0 0 0 0 0 0 0 0 0 0 0 0 0 0 0 0 0 0 0 0 0 0 0 0 0 8 12 20 20 20 12 12 8 8 0 0 0 0
36 20 44 48 48 56 64 64 64 64 64 56 48 64 80 88 88 80 80 80 80 76 76 76 68 64 68 64 64 48 12 8 0 0 0 0 0 0 8 8 8 12 12 12 12 8 8 8 8 8 8 8 8 8 8 8 0 0 0 0 0 0 0 0 0 0 0 0 0 0 0 0 0 0 0 0 0 0 0 0 0 0 0 0 0 0 0 0 0 0 8 12 12 12 12 8 8 8 0 0 0 0 0
80 68 64 64 68 76 76 68 68 68 64 64 44 32 44 68 76 80 80 68 68 76 76 76 76 68 76 68 44 20 0 0 0 0 0 0 8 8 8 8 8 8 8 8 8 8 8 8 8 8 8 8 8 8 8 8 8 8 8 8 0 0 0 0 0 0 0 0 0 0 0 0 0 8 8 8 0 0 0 0 0 0 0 0 0 0 0 0 0 0 8 12 12 12 8 8 8 0 0 0 0 0 0
88 88 88 88 88 88 80 80 76 68 68 56 32 12 12 32 36 36 36 24 24 36 56 68 64 56 76 56 24 8 8 8 8 8 8 8 8 8 8 8 8 8 8 8 8 8 8 8 8 8 8 12 12 12 8 8 8 8 8 8 8 8 0 8 8 0 0 0 8 8 8 8 8 8 8 0 0 0 0 0 0 0 0 0 0 0 0 0 0 8 12 12 12 12 8 0 0 0 0 0 0 0 0
92 92 88 88 88 88 88 88 76 68 68 68 36 12 8 8 8 8 8 0 0 0 8 8 8 8 12 8 12 20 20 20 12 12 12 12 12 12 12 8 8 8 8 8 8 0 0 0 8 8 8 8 12 12 8 12 8 8 8 8 8 8 8 8 8 8 8 8 12 12 12 12 12 8 8 0 0 0 0 0 0 0 0 0 0 0 0 8 8 12 12 12 8 8 8 0 0 0 0 0 0 0 0
92 92 92 92 88 88 80 88 76 64 56 56 44 20 12 12 8 8 12 20 20 20 12 12 12 12 12 20 24 32 32 32 32 24 24 20 20 20 12 12 8 8 8 8 8 8 8 8 8 8 8 8 8 8 8 8 12 12 12 12 12 12 8 12 12 12 12 12 12 12 12 12 12 8 0 0 0 0 0 0 0 0 0 0 0 0 0 8 12 12 12 8 8 0 0 0 0 0 0 0 0 0 0
92 92 92 80 80 88 68 76 68 48 36 36 24 12 20 20 12 20 24 24 24 24 24 24 24 24 24 32 24 24 24 24 24 24 24 24 20 20 12 12 8 8 8 8 8 0 0 0 8 8 8 8 8 8 12 12 12 12 20 12 12 12 12 12 12 12 12 12 12 12 12 8 8 0 0 0 0 0 0 0 0 0 0 0 0 0 8 12 12 12 8 0 0 0 0 0 0 0 0 0 0 0 0
80 76 76 88 88 76 64 64 64 48 36 36 32 32 24 20 20 20 20 24 24 24 24 24 24 20 24 20 20 20 12 12 20 20 12 12 20 20 12 12 12 12 8 8 8 8 8 8 8 8 8 8 8 8 12 12 20 20 20 20 20 12 12 12 12 12 20 20 12 8 8 0 0 0 0 0 0 0 0 0 0 0 0 0 0 0 12 8 8 8 8 0 0 0 0 0 0 0 0 0 0 0 0
44 48 56 80 80 68 56 56 48 48 44 36 36 32 24 24 20 24 24 24 24 24 24 24 20 20 12 12 12 12 12 12 8 8 8 12 20 24 24 20 20 20 12 12 12 12 12 12 8 8 8 8 8 12 12 12 12 12 20 20 12 12 12 12 12 12 12 12 8 0 0 0 0 0 0 0 0 0 0 0 0 0 0 0 8 8 8 0 0 0 0 0 0 0 0 0 0 0 0 0 0 0 0
24 32 36 48 48 44 44 48 48 48 44 36 36 32 32 24 20 20 20 20 20 20 20 20 20 20 12 12 12 12 20 20 20 20 12 12 24 32 32 32 24 24 20 24 24 20 20 20 12 12 12 12 12 12 12 12 12 8 8 8 8 8 8 8 8 8 8 8 0 0 0 0 0 0 0 0 0 0 0 0 0 0 0 0 0 0 8 0 0 0 0 0 0 0 0 0 0 0 0 0 0 0 8
12 12 20 24 32 32 24 36 44 44 44 36 36 32 24 20 20 12 12 12 12 12 12 12 12 12 12 12 12 12 20 24 24 24 20 24 32 32 36 36 32 32 24 32 32 32 24 24 20 20 20 12 12 12 12 8 8 8 0 0 0 0 0 8 8 8 8 0 0 0 0 0 0 0 0 0 0 0 0 0 0 0 0 0 0 0 0 0 0 0 0 0 0 0 0 0 0 0 0 8 8 8 8
12 12 12 24 24 24 24 32 36 36 44 36 36 32 24 24 20 20 12 12 12 12 12 12 12 12 12 20 20 12 12 20 24 32 32 32 32 32 36 36 36 36 36 36 36 36 32 32 24 24 20 20 20 12 8 8 0 0 0 0 0 0 0 0 0 0 0 0 0 0 0 0 0 0 0 0 0 0 0 0 0 0 0 0 0 0 0 0 0 0 0 0 0 0 0 0 0 0 0 8 8 8 8
12 12 12 20 20 24 24 24 32 32 36 32 32 24 24 20 20 20 20 12 12 12 20 20 20 20 24 24 24 24 20 20 20 24 32 32 32 32 36 36 36 36 36 36 36 36 36 32 32 24 24 20 20 12 8 8 0 0 0 0 0 0 0 0 0 0 0 0 0 0 0 0 0 0 0 0 0 0 0 0 0 0 0 0 0 8 8 20 12 8 8 12 20 12 8 8 8 8 0 8 8 8 8
12 12 12 20 20 20 20 20 20 24 32 32 24 24 24 20 20 20 20 20 20 12 12 20 20 20 24 24 32 32 32 24 24 24 24 36 36 36 36 36 36 36 36 36 36 36 36 36 32 32 24 20 20 12 12 8 0 0 0 0 0 0 0 0 0 0 0 0 0 0 0 0 0 0 0 0 0 0 0 0 0 0 8 12 20 32 44 48 36 24 8 8 12 20 24 24 24 20 12 8 8 8 8
12 12 8 12 20 20 20 20 20 20 20 24 20 20 20 20 20 20 24 20 20 20 20 20 20 20 20 24 32 36 36 36 36 36 36 44 48 44 44 36 36 36 36 36 32 32 32 32 32 24 24 20 20 20 12 12 8 0 0 0 0 0 0 0 0 0 0 0 0 0 0 0 0 0 0 0 0 0 0 0 0 8 12 8 20 36 36 48 48 36 12 12 12 20 24 32 24 24 24 12 8 0 8
12 8 8 8 12 20 20 12 12 12 12 12 12 12 20 20 20 20 20 20 20 20 20 20 20 20 20 24 32 44 44 48 48 56 64 56 56 48 48 44 44 36 36 32 32 32 32 32 32 32 32 32 32 24 20 20 8 0 0 0 0 0 0 0 0 0 0 0 0 0 0 0 0 0 0 0 0 0 8 12 12 20 12 8 24 44 44 48 56 48 36 36 24 20 32 24 32 36 36 36 24 20 20
12 12 8 8 12 12 20 12 12 12 12 12 12 12 12 12 12 20 12 20 20 20 20 20 24 24 24 24 32 44 48 56 64 64 64 64 56 56 56 48 48 44 32 32 24 24 24 32 32 32 32 32 32 24 24 12 8 0 0 0 0 0 0 0 0 0 0 0 0 0 0 0 0 8 8 8 8 12 20 20 20 12 12 8 24 44 48 44 48 48 48 48 44 32 24 32 32 36 44 80 76 64 64
12 12 12 8 8 12 12 12 12 20 20 20 12 12 12 12 12 12 12 12 20 20 24 24 32 36 36 32 32 36 48 48 56 56 48 56 56 56 48 48 48 44 24 24 24 24 24 32 32 24 20 20 20 20 20 8 0 0 0 0 0 0 0 0 0 0 0 0 0 0 0 0 8 20 20 12 20 24 24 20 12 8 0 0 24 56 64 56 48 44 44 48 56 48 44 44 44 48 76 76 76 76 92
20 20 12 12 12 8 12 12 12 20 20 20 20 20 12 12 12 12 12 12 20 24 24 32 36 36 36 36 32 36 48 44 44 48 44 44 44 44 44 44 36 36 24 24 24 20 20 24 24 24 20 20 12 12 12 0 0 0 0 0 0 0 0 0 0 0 0 8 8 8 12 12 20 20 20 20 20 24 20 12 8 0 0 0 36 76 80 76 68 56 48 56 64 64 56 56 56 56 80 64 48 56 88
20 24 20 20 12 12 12 12 12 20 24 24 24 24 24 20 20 20 20 20 20 24 36 44 44 44 44 36 36 36 48 36 44 48 44 36 32 32 32 32 32 24 24 20 20 20 20 24 20 12 8 8 8 8 0 0 0 0 0 0 0 8 8 8 8 8 8 8 8 12 12 12 20 12 20 12 20 20 20 12 8 0 0 0 24 64 92 92 88 68 64 64 64 76 80 88 76 68 76 64 56 56 76
24 24 24 20 20 12 12 12 12 20 32 32 32 32 32 32 32 32 32 32 32 32 44 48 48 56 48 48 48 48 48 48 48 44 44 36 32 32 32 32 24 20 12 12 12 8 12 12 8 0 0 0 0 0 0 0 0 0 0 0 8 12 12 12 12 12 8 8 0 8 8 8 8 12 12 12 12 12 12 12 8 0 0 0 8 32 76 92 88 80 64 64 64 68 88 88 88 88 92 80 80 76 64
32 32 24 24 20 20 12 20 20 24 32 32 32 32 32 32 36 44 44 44 44 44 48 48 48 56 56 56 56 56 56 56 48 44 44 36 36 32 24 24 24 24 20 20 8 8 0 0 0 0 0 0 0 0 0 0 8 8 0 8 12 20 12 12 12 8 8 0 0 0 0 0 8 8 8 8 8 12 8 8 8 8 0 12 20 24 56 80 92 88 76 76 68 68 76 80 88 88 88 88 88 80 48
32 32 32 24 24 20 20 20 20 24 24 32 32 32 32 32 36 36 36 44 48 48 44 44 36 36 36 36 48 56 56 64 64 48 48 44 32 20 12 12 24 44 44 32 24 20 12 12 8 0 0 0 0 8 8 12 8 8 8 12 20 12 12 20 12 8 0 0 0 0 0 8 8 8 8 8 8 8 8 12 8 8 8 20 32 44 64 76 88 92 88 80 76 76 68 68 76 80 76 92 92 76 48
32 36 32 32 24 24 24 24 24 24 24 32 32 32 32 32 32 32 32 32 36 44 44 36 36 36 36 44 64 76 68 68 64 48 36 36 32 24 20 24 36 48 56 48 44 32 24 20 20 12 8 8 8 12 12 12 8 8 8 12 12 12 20 20 20 12 0 0 0 0 8 8 8 8 8 8 8 12 12 12 12 12 20 20 32 48 76 76 80 80 76 76 76 76 76 64 76 88 88 92 92 80 56
32 32 32 24 24 32 36 44 44 44 44 36 36 36 36 32 32 32 32 32 36 44 48 48 56 64 64 68 76 88 80 64 56 48 36 32 32 24 24 20 20 32 48 48 48 44 36 24 20 20 12 12 12 12 12 8 8 8 8 8 8 8 24 24 20 12 8 0 0 0 8 8 8 8 8 8 12 20 20 20 20 20 24 24 32 36 48 64 68 68 64 68 64 64 64 76 88 92 92 88 76 68 68
32 24 24 24 24 36 48 48 56 56 64 64 56 48 44 36 32 24 24 32 48 68 68 68 76 76 76 56 48 56 68 64 56 48 48 36 32 20 12 0 0 8 12 36 44 36 32 24 20 20 20 20 12 12 12 12 8 8 8 8 8 8 8 12 12 12 8 8 0 0 0 8 12 12 20 20 24 32 24 24 24 24 20 24 24 24 24 24 44 68 88 76 68 64 44 64 80 92 92 68 68 80 92
36 32 24 32 36 48 56 64 68 68 68 64 64 56 48 48 44 36 44 64 76 80 80 64 48 44 44 36 32 32 24 24 44 56 56 36 32 24 12 0 0 0 0 8 20 24 24 12 8 12 20 20 20 12 12 12 8 8 8 8 0 0 0 0 8 12 12 12 12 8 8 20 24 32 36 36 44 44 36 32 24 20 12 12 20 20 12 12 24 44 76 88 80 76 68 80 80 76 68 56 64 80 92
36 44 48 48 56 64 68 76 76 76 68 64 64 56 64 64 64 68 76 76 76 64 48 44 36 36 32 24 24 24 12 8 8 20 36 24 20 20 12 0 0 0 0 0 0 8 12 0 0 8 12 12 12 12 12 12 8 8 8 0 0 0 0 0 8 12 24 24 24 24 24 36 36 44 48 48 48 44 36 32 20 12 8 8 12 12 12 8 12 20 32 44 36 24 24 56 76 88 56 48 64 88 92
68 64 64 56 56 68 80 92 92 88 80 76 68 64 68 76 76 76 64 64 64 48 44 36 32 24 24 24 24 20 12 0 0 8 20 24 20 12 12 0 0 0 0 0 0 0 0 0 8 12 20 20 12 12 12 8 8 0 0 8 8 12 12 12 12 24 36 36 36 36 36 48 56 56 64 56 48 44 36 32 20 8 0 8 8 8 8 12 8 8 20 36 44 36 24 68 88 92 92 56 68 92 92
68 64 64 56 48 56 92 92 92 92 88 80 80 76 68 76 76 68 48 44 36 36 32 32 32 32 24 24 24 20 12 8 0 0 8 8 12 12 0 8 8 8 0 0 0 0 0 8 12 20 20 20 24 24 20 20 8 0 0 0 0 0 8 12 20 24 32 32 36 44 48 48 64 68 68 68 64 48 32 24 12 8 0 0 0 0 8 12 20 20 0 36 44 48 56 88 92 92 76 56 76 92 76
48 44 32 32 32 44 80 88 92 92 92 88 88 80 64 56 48 44 32 36 32 24 20 32 36 44 44 36 32 20 8 0 0 8 8 0 0 0 8 8 8 12 20 12 8 0 0 0 12 24 20 20 20 20 12 12 8 0 0 0 0 0 8 8 12 24 44 44 36 36 44 36 44 48 64 68 56 44 32 20 12 8 8 8 8 8 8 12 8 8 12 56 76 80 92 92 88 68 56 76 88 92 92
36 24 20 12 8 24 80 88 88 88 92 88 88 76 48 44 44 32 24 12 20 24 32 32 36 48 64 56 36 24 12 0 0 8 8 0 0 12 20 44 32 12 8 8 8 8 0 20 32 32 24 20 20 20 12 12 8 8 0 8 12 20 20 24 24 24 44 36 32 24 32 20 20 20 20 48 56 44 32 24 12 8 8 8 8 8 8 8 12 20 44 80 92 92 76 76 76 76 68 76 88 92 92
56 36 24 24 44 68 76 80 80 88 92 88 80 76 68 48 36 32 20 8 0 8 24 44 44 44 56 64 56 44 20 8 0 8 8 8 8 8 8 20 20 12 8 8 8 12 20 32 44 44 32 24 24 32 24 12 8 8 0 24 24 20 12 8 0 8 24 20 8 0 0 8 12 12 12 36 44 44 32 24 12 8 8 8 8 8 12 12 12 32 76 88 92 92 88 88 88 92 88 80 76 76 68
80 76 64 64 68 76 68 68 68 76 80 80 76 68 68 48 36 20 8 8 12 20 24 56 56 48 44 44 48 48 24 20 8 8 8 12 20 24 32 24 20 12 12 12 20 24 24 32 44 56 56 32 20 20 20 20 12 8 8 24 24 12 0 0 0 8 32 12 0 0 8 8 12 20 20 48 48 36 20 20 20 20 8 8 8 12 20 24 24 24 32 24 36 64 92 80 80 80 88 80 76 68 64
80 80 88 76 76 68 64 64 64 64 64 76 76 68 64 44 24 12 8 12 24 44 56 68 68 64 44 44 48 56 56 32 24 20 12 20 32 44 48 44 44 32 32 32 32 36 36 44 44 48 48 24 12 8 12 12 8 12 32 20 8 8 0 0 8 20 36 20 8 0 12 12 24 44 48 64 48 32 20 12 24 32 8 12 12 12 20 32 36 36 32 24 24 36 76 76 80 88 92 88 80 76 68
68 68 68 68 64 56 48 44 44 44 48 64 68 68 48 44 32 20 20 48 64 68 64 64 68 68 56 64 64 68 68 48 36 32 32 32 44 56 64 64 56 48 36 36 36 44 44 48 48 44 48 48 36 20 0 8 8 20 36 24 12 8 0 0 20 36 36 8 0 0 12 12 12 24 44 64 44 24 20 20 32 36 20 12 12 20 20 32 36 36 24 24 24 32 64 64 68 76 80 76 76 76 68
56 56 56 48 48 48 44 32 36 44 36 48 56 56 64 56 44 44 56 64 56 64 76 76 68 68 80 80 76 80 80 76 64 48 48 48 48 48 48 56 48 44 36 36 44 56 56 56 56 64 92 92 92 76 24 12 20 36 64 32 12 0 0 0 24 44 32 12 8 8 12 20 20 24 32 56 48 32 32 32 44 48 36 20 20 20 20 20 24 32 24 24 24 32 44 76 88 80 68 64 56 64 64
48 48 56 56 48 48 48 36 36 36 36 48 56 56 64 56 36 32 36 36 36 44 68 76 80 80 88 80 88 92 92 92 76 56 48 48 56 48 36 36 44 48 48 64 80 88 92 80 88 92 92 92 92 92 92 36 32 36 12 8 8 0 0 8 20 36 36 8 8 8 8 12 20 32 56 64 56 36 44 48 48 44 32 20 12 12 12 12 12 12 24 32 32 24 20 48 68 80 64 56 48 56 64